"Pseudo-MPEC" for N00ffgw

Created 2019 Sep 24 18:07:14 UT using Find_Orb

Click here for an explanation of pseudo-MPECs

 
 Astrometry: 
     N00ffgw  S2019 09 05kP=ia9bEOw/h*(uTH81RR=C#'M0B7MD($br?U4?^1NL;0GI2:4elC51
     N00ffgw  s2019 09 05QbIX6YTMay0?;(^Jp#.'+Zv;[E(u3GBd/kvE%PMAstrometryf)7C51
     N00ffgw  S2019 09 05+xsCHiG0p,DFE*UXQQB`w`Hgh,$M^wp-fq=6X\ZB'dQ_o)[/So(!C51
     N00ffgw  s2019 09 05\Ja`QF7!-#s$9Q@OeV)noxwP-#)#__9cFT:Fk;-oh2bs,8^IHgq?C51
     N00ffgw  S2019 09 06nnMKx*d7wM7QA^w6redacted;kl%W.RkgIX^AR,5Y1g=u$:FwTC3C51
     N00ffgw  s2019 09 06yilWwEuR6!HTBT:13KyPWkVskS'4f'#38T2g,H)-J7)%Q;8VnCVKC51
     N00ffgw  S2019 09 06hfyY?m_aJry$^fe,Ir1`VjkK\Gs%WxmCwXMswNsV3_As/m^IIN;NC51
     N00ffgw  s2019 09 061bGjtF8=w4/lj)Cy+;@Y$4=N7FifWQg!%39weX1N$!WGs3!%OA8-C51
     N00ffgw  S2019 09 06/U[GUJgfVTh[B'X-9i[qDmstw/;5=clickKDRL#9f3mTnherei6'C51
     N00ffgw  s2019 09 06P)Jf!oYN39H0#=ytBCLnC)a0Uex.FO8p;m?Nu,ACD`;r]9yQ\(9FC51
     N00ffgw  S2019 09 06yH?dFMdO?ZDfra,:^#for8yre\1d3HFHENgcOoMXhb#/upi/Y\.RC51
     N00ffgw  s2019 09 06!j=?W?e^hef/(oX0N!rQ0hZjpiJ,wV-AMLyGk]iV#R9s1IGfuxvcC51
     N00ffgw KC2019 09 07$0-N1ZQAAsIGLp9c_If7b_e,B`^#c)1k]v4GagIg7Pve=g(Dmcf.474
     N00ffgw KC2019 09 07G_1dhvVKs\97]UX`BoMEhj2JFexplanationV=cwK1\]OJY+O,AB474
     N00ffgw KC2019 09 07wYQU?N$B!IdE\4kl+UiW@%nI)'UXhPUec,A]ZE%[IC+1LQ[uMUu$474

Station data:
(474) Mount John Observatory, Lake Tekapo  (S43.987388 E170.464960)  New
   Zealand.  Observers A. C. Gilmore, P. M. Kilmartin. Measurer P. M.
   Kilmartin. 1.0-m f/7.7 reflector + CCD.
(C51) WISE. Measurers A. Mainzer, E. Wright, J. Bauer, T. Grav, J. Dailey, J.
   Masiero, R. Cutri, R. McMillan, R. Walker.

Orbital elements:  N00ffgw
   Perihelion 2019 Nov 11.191706 +/- 6.85 TT =  4:36:03 (JD 2458798.691706)
Epoch 2019 Sep  7.0 TT = JDT 2458733.5   Earth MOID: 0.2341   Ma: 0.0148
M 301.24061692 +/- 25               (J2000 ecliptic)          AutoNEOCP
n   0.90133218 +/- 0.331            Peri.  333.91420 +/- 14
a   1.06140092 +/- 0.289            Node   145.07336 +/- 6
e   0.5254778 +/- 0.0986            Incl.   24.83478 +/- 7
P   1.09/399.40d           H 20.8   G  0.15   U 12.0  
q 0.50365825 +/- 0.0269    Q 1.61914358 +/- 0.605
From 9 observations 2019 Sept. 5-7 (41.5 hr); mean residual 0".54
Residuals in arcseconds: 
190905 C51  .19-  .75-    190906 C51  .75-  .35-    190907 474  .59+  .01+    
190905 C51  .81+  .18-    190906 C51  .38+  .41+    190907 474  .72+  .20-    
190906 C51  .48-  .49+    190906 C51  .41+  .41+    190907 474  1.1-  .15+    

Ephemerides (geocentric):
Date (UTC) HH   RA              Dec         delta   r     elong  mag " sig PA
---- -- -- --  -------------   -----------  ------ ------ -----  --- ---- ---
2019 09 24 18  08 24 39.631   -32 13 46.74  .37129 .88236  60.6 21.9  627 122
2019 09 24 19  08 25 02.385   -32 13 25.77  .37156 .88195  60.5 21.9  629 122
2019 09 24 20  08 25 25.112   -32 13 04.53  .37183 .88153  60.5 21.9  631 122
2019 09 24 21  08 25 47.811   -32 12 43.04  .37210 .88111  60.4 21.9  632 122
2019 09 24 22  08 26 10.484   -32 12 21.28  .37237 .88069  60.4 21.9  634 122
2019 09 24 23  08 26 33.128   -32 11 59.26  .37264 .88028  60.3 21.9  636 122
2019 09 25 00  08 26 55.745   -32 11 36.99  .37291 .87986  60.3 21.9  638 122
2019 09 25 01  08 27 18.335   -32 11 14.45  .37318 .87944  60.2 21.9  640 122
2019 09 25 02  08 27 40.898   -32 10 51.66  .37346 .87903  60.1 21.9  641 122
2019 09 25 03  08 28 03.433   -32 10 28.61  .37373 .87861  60.1 21.9  643 122
2019 09 25 04  08 28 25.940   -32 10 05.31  .37401 .87819  60.0 21.9  645 122
2019 09 25 05  08 28 48.420   -32 09 41.75  .37428 .87778  60.0 21.9  647 122
2019 09 25 06  08 29 10.873   -32 09 17.94  .37456 .87736  59.9 21.9  649 122
2019 09 25 07  08 29 33.298   -32 08 53.88  .37483 .87694  59.9 21.9  650 122
2019 09 25 08  08 29 55.695   -32 08 29.56  .37511 .87652  59.8 21.9  652 122
2019 09 25 09  08 30 18.065   -32 08 04.99  .37539 .87610  59.7 21.9  654 122
2019 09 25 10  08 30 40.408   -32 07 40.17  .37567 .87569  59.7 21.9  656 122
2019 09 25 11  08 31 02.723   -32 07 15.11  .37594 .87527  59.6 21.9  658 122
2019 09 25 12  08 31 25.010   -32 06 49.79  .37622 .87485  59.6 21.9  659 122
2019 09 25 13  08 31 47.270   -32 06 24.23  .37650 .87443  59.5 21.9  661 122
2019 09 25 14  08 32 09.503   -32 05 58.42  .37678 .87402  59.5 21.9  663 122
2019 09 25 15  08 32 31.708   -32 05 32.37  .37706 .87360  59.4 21.9  665 122
2019 09 25 16  08 32 53.885   -32 05 06.07  .37735 .87318  59.4 21.9  667 122
2019 09 25 17  08 33 16.035   -32 04 39.53  .37763 .87276  59.3 21.9  668 122
2019 09 25 18  08 33 38.157   -32 04 12.74  .37791 .87234  59.2 21.9  670 122
2019 09 25 19  08 34 00.252   -32 03 45.71  .37819 .87192  59.2 21.9  672 122
2019 09 25 20  08 34 22.319   -32 03 18.44  .37848 .87150  59.1 21.9  674 122
2019 09 25 21  08 34 44.359   -32 02 50.93  .37876 .87109  59.1 21.9  676 122
2019 09 25 22  08 35 06.371   -32 02 23.18  .37904 .87067  59.0 21.9  677 122
2019 09 25 23  08 35 28.355   -32 01 55.19  .37933 .87025  59.0 21.9  679 122
2019 09 26 00  08 35 50.312   -32 01 26.96  .37961 .86983  58.9 21.9  681 122
2019 09 26 01  08 36 12.241   -32 00 58.50  .37990 .86941  58.8 21.9  683 122
2019 09 26 02  08 36 34.143   -32 00 29.80  .38019 .86899  58.8 21.9  685 122
2019 09 26 03  08 36 56.017   -32 00 00.87  .38048 .86857  58.7 21.9  686 122
2019 09 26 04  08 37 17.864   -31 59 31.70  .38076 .86815  58.7 21.9  688 122
2019 09 26 05  08 37 39.683   -31 59 02.29  .38105 .86773  58.6 21.9  690 122
2019 09 26 06  08 38 01.475   -31 58 32.66  .38134 .86731  58.6 22.0  692 122
2019 09 26 07  08 38 23.239   -31 58 02.79  .38163 .86690  58.5 22.0  694 122
2019 09 26 08  08 38 44.975   -31 57 32.69  .38192 .86648  58.5 22.0  696 122
2019 09 26 09  08 39 06.684   -31 57 02.36  .38221 .86606  58.4 22.0  697 122
2019 09 26 10  08 39 28.365   -31 56 31.80  .38250 .86564  58.4 22.0  699 122
2019 09 26 11  08 39 50.019   -31 56 01.02  .38279 .86522  58.3 22.0  701 122
2019 09 26 12  08 40 11.645   -31 55 30.00  .38308 .86480  58.2 22.0  703 122
2019 09 26 13  08 40 33.244   -31 54 58.76  .38338 .86438  58.2 22.0  705 122
2019 09 26 14  08 40 54.816   -31 54 27.29  .38367 .86396  58.1 22.0  706 122
2019 09 26 15  08 41 16.359   -31 53 55.60  .38396 .86354  58.1 22.0  708 122
2019 09 26 16  08 41 37.875   -31 53 23.68  .38426 .86312  58.0 22.0  710 122
2019 09 26 17  08 41 59.364   -31 52 51.54  .38455 .86270  58.0 22.0  712 121